Location: Benque
(43.2594°N, 0.9178°E)
Time: 21:58:40
(UTC+00:00)

ADEOS Rocket - Pass Details

Date: 24 January 2020
Orbit: 859 x 1306 km, 98.7° (Epoch: 19 February)

Event Time Altitude Azimuth Distance (km) Brightness Sun altitude
Rises 17:45:01 0° 26° (NNE) 3,863 5.7 -8.9°
Reaches altitude 10° 17:48:01 10° 39° (NE) 2,976 5.0 -9.5°
Maximum altitude 17:53:31 25° 93° (E) 2,156 4.3 -10.4°
Drops below altitude 10° 17:59:22 10° 146° (SE) 3,196 5.5 -11.4°
Sets 18:02:41 0° 159° (SSE) 4,209 6.3 -12.0°
